| time (UTC) | temp F | wind direction | speed MPH | gust MPH | rain 1hr in | rain 24hr in | rain mn in | humidity % | barometer mb |
| 20260901203843 | 93 | 242 | 0.0 | 1.0 | 0.00 | 0.00 | 0.00 | 51 | 1013.3 |
| 20260901202351 | 93 | 265 | 0.0 | 0.0 | 0.00 | 0.00 | 0.00 | 51 | 1013.4 |
| 20260901201847 | 93 | 153 | 0.0 | 4.0 | 0.00 | 0.00 | 0.00 | 50 | 1013.4 |
| 20260901201337 | 93 | 155 | 0.0 | 1.0 | 0.00 | 0.00 | 0.00 | 51 | 1013.5 |
| 20260901200818 | 93 | 284 | 0.0 | 0.0 | 0.00 | 0.00 | 0.00 | 50 | 1013.5 |
| 20260901200324 | 93 | 159 | 0.0 | 6.0 | 0.00 | 0.00 | 0.00 | 50 | 1013.5 |
| 20260901195830 | 93 | 298 | 0.0 | 6.0 | 0.00 | 0.00 | 0.00 | 49 | 1013.6 |
| 20260901194823 | 93 | 155 | 0.0 | 3.0 | 0.00 | 0.00 | 0.00 | 46 | 1013.7 |
| 20260901194305 | 93 | 133 | 0.0 | 0.0 | 0.00 | 0.00 | 0.00 | 46 | 1013.7 |
| 20260901193804 | 92 | 302 | 0.0 | 0.0 | 0.00 | 0.00 | 0.00 | 46 | 1013.7 |
| 20260901193312 | 92 | 294 | 0.0 | 5.0 | 0.00 | 0.00 | 0.00 | 47 | 1013.9 |
| 20260901192256 | 92 | 132 | 0.0 | 6.0 | 0.00 | 0.00 | 0.00 | 47 | 1014.1 |
| 20260901191746 | 92 | 5 | 0.0 | 3.0 | 0.00 | 0.00 | 0.00 | 47 | 1014.1 |
| 20260901191230 | 92 | 148 | 0.0 | 0.0 | 0.00 | 0.00 | 0.00 | 47 | 1014.1 |
| 20260901190739 | 92 | 233 | 0.0 | 6.0 | 0.00 | 0.00 | 0.00 | 47 | 1014.2 |
| 20260901190232 | 92 | 217 | 0.0 | 5.0 | 0.00 | 0.00 | 0.00 | 45 | 1014.3 |
| 20260901185716 | 92 | 281 | 0.0 | 2.0 | 0.00 | 0.00 | 0.00 | 43 | 1014.4 |
| 20260901185223 | 92 | 309 | 0.0 | 0.0 | 0.00 | 0.00 | 0.00 | 42 | 1014.5 |
| 20260901184731 | 92 | 254 | 0.0 | 0.0 | 0.00 | 0.00 | 0.00 | 37 | 1014.5 |
| 20260901184212 | 91 | 276 | 0.0 | 1.0 | 0.00 | 0.00 | 0.00 | 41 | 1014.6 |
| 20260901183707 | 91 | 297 | 0.0 | 1.0 | 0.00 | 0.00 | 0.00 | 41 | 1014.7 |
| 20260901183214 | 91 | 191 | 0.0 | 2.0 | 0.00 | 0.00 | 0.00 | 42 | 1014.7 |
| 20260901182715 | 91 | 130 | 0.0 | 1.0 | 0.00 | 0.00 | 0.00 | 42 | 1014.8 |
| 20260901181721 | 91 | 273 | 0.0 | 0.0 | 0.00 | 0.00 | 0.00 | 44 | 1014.7 |
| 20260901181214 | 91 | 30 | 0.0 | 0.0 | 0.00 | 0.00 | 0.00 | 40 | 1014.7 |
| 20260901180720 | 90 | 241 | 0.0 | 4.0 | 0.00 | 0.00 | 0.00 | 41 | 1014.6 |
| 20260901175715 | 90 | 241 | 0.0 | 0.0 | 0.00 | 0.00 | 0.00 | 35 | 1014.8 |
| 20260901175217 | 89 | 205 | 0.0 | 7.0 | 0.00 | 0.00 | 0.00 | 34 | 1014.7 |
| 20260901174719 | 89 | 283 | 0.0 | 6.0 | 0.00 | 0.00 | 0.00 | 35 | 1014.7 |
| 20260901174216 | 89 | 190 | 0.0 | 6.0 | 0.00 | 0.00 | 0.00 | 36 | 1014.7 |
| 20260901173723 | 89 | 261 | 0.0 | 0.0 | 0.00 | 0.00 | 0.00 | 29 | 1014.7 |
| 20260901173232 | 89 | 209 | 0.0 | 0.0 | 0.00 | 0.00 | 0.00 | 33 | 1014.8 |
| 20260901172732 | 89 | 265 | 0.0 | 2.0 | 0.00 | 0.00 | 0.00 | 28 | 1014.9 |
| 20260901172232 | 88 | 271 | 0.0 | 6.0 | 0.00 | 0.00 | 0.00 | 30 | 1015.0 |
| 20260901171733 | 88 | 235 | 0.0 | 0.0 | 0.00 | 0.00 | 0.00 | 18 | 1015.0 |
| 20260901171226 | 87 | 274 | 0.0 | 5.0 | 0.00 | 0.00 | 0.00 | 1 | 1015.2 |
| 20260901170714 | 87 | 229 | 0.0 | 0.0 | 0.00 | 0.00 | 0.00 | 1 | 1015.2 |
| 20260901170156 | 86 | 240 | 0.0 | 0.0 | 0.00 | 0.00 | 0.00 | 5 | 1015.2 |
| 20260901165706 | 86 | 327 | 0.0 | 0.0 | 0.00 | 0.00 | 0.00 | 8 | 1015.2 |
| 20260901165209 | 86 | 275 | 0.0 | 3.0 | 0.00 | 0.00 | 0.00 | 1 | 1015.1 |
| 20260901163631 | 86 | 180 | 0.0 | 0.0 | 0.00 | 0.00 | 0.00 | 1 | 1015.3 |
| 20260901162622 | 85 | 282 | 0.0 | 8.0 | 0.00 | 0.00 | 0.00 | 1 | 1015.7 |
| 20260901162124 | 85 | 232 | 0.0 | 0.0 | 0.00 | 0.00 | 0.00 | 1 | 1015.8 |
| 20260901160602 | 84 | 248 | 0.0 | 0.0 | 0.00 | 0.00 | 0.00 | 1 | 1015.9 |
| 20260901160049 | 85 | 291 | 0.0 | 0.0 | 0.00 | 0.00 | 0.00 | 1 | 1015.9 |
| 20260901155538 | 85 | 272 | 0.0 | 0.0 | 0.00 | 0.00 | 0.00 | 2 | 1015.9 |
| 20260901155025 | 85 | 262 | 0.0 | 2.0 | 0.00 | 0.00 | 0.00 | 3 | 1015.9 |
| 20260901154029 | 85 | 249 | 0.0 | 0.0 | 0.00 | 0.00 | 0.00 | 4 | 1015.9 |
| 20260901153523 | 85 | 112 | 0.0 | 3.0 | 0.00 | 0.00 | 0.00 | 4 | 1016.0 |
| 20260901152506 | 85 | 281 | 0.0 | 0.0 | 0.00 | 0.00 | 0.00 | 1 | 1016.0 |
| 20260901151952 | 85 | 256 | 0.0 | 3.0 | 0.00 | 0.00 | 0.00 | 1 | 1016.0 |
| 20260901151434 | 85 | 329 | 0.0 | 1.0 | 0.00 | 0.00 | 0.00 | 2 | 1016.0 |
| 20260901150924 | 85 | 267 | 0.0 | 1.0 | 0.00 | 0.00 | 0.00 | 3 | 1016.1 |
| 20260901150407 | 85 | 297 | 0.0 | 0.0 | 0.00 | 0.00 | 0.00 | 5 | 1016.1 |
| 20260901145904 | 85 | 229 | 0.0 | 3.0 | 0.00 | 0.00 | 0.00 | 1 | 1016.2 |
| 20260901145405 | 85 | 310 | 0.0 | 1.0 | 0.00 | 0.00 | 0.00 | 1 | 1016.1 |
| 20260901144903 | 85 | 257 | 0.0 | 1.0 | 0.00 | 0.00 | 0.00 | 1 | 1016.1 |
| 20260901143905 | 85 | 294 | 0.0 | 6.0 | 0.00 | 0.00 | 0.00 | 1 | 1016.1 |
| 20260901143347 | 85 | 292 | 0.0 | 2.0 | 0.00 | 0.00 | 0.00 | 1 | 1016.0 |
| 20260901142837 | 85 | 291 | 0.0 | 6.0 | 0.00 | 0.00 | 0.00 | 1 | 1016.0 |
| 20260901142328 | 84 | 259 | 0.0 | 7.0 | 0.00 | 0.00 | 0.00 | 1 | 1016.0 |
| 20260901141821 | 83 | 247 | 0.0 | 7.0 | 0.00 | 0.00 | 0.00 | 1 | 1016.0 |
| 20260901141328 | 82 | 256 | 0.0 | 7.0 | 0.00 | 0.00 | 0.00 | 1 | 1016.1 |
| 20260901140317 | 81 | 126 | 0.0 | 3.0 | 0.00 | 0.00 | 0.00 | 1 | 1016.1 |
| 20260901135801 | 80 | 232 | 0.0 | 3.0 | 0.00 | 0.00 | 0.00 | 1 | 1016.1 |
| 20260901135246 | 80 | 225 | 0.0 | 5.0 | 0.00 | 0.00 | 0.00 | 1 | 1016.2 |
| 20260901134747 | 79 | 273 | 0.0 | 5.0 | 0.00 | 0.00 | 0.00 | 1 | 1016.1 |
| 20260901134253 | 79 | 167 | 0.0 | 5.0 | 0.00 | 0.00 | 0.00 | 1 | 1016.2 |
| 20260901133234 | 79 | 227 | 0.0 | 1.0 | 0.00 | 0.00 | 0.00 | 1 | 1016.2 |
| 20260901132738 | 79 | 213 | 0.0 | 0.0 | 0.00 | 0.00 | 0.00 | 1 | 1016.2 |
| 20260901131203 | 79 | 235 | 0.0 | 0.0 | 0.00 | 0.00 | 0.00 | 1 | 1016.1 |
| 20260901130704 | 78 | 234 | 0.0 | 0.0 | 0.00 | 0.00 | 0.00 | 1 | 1016.1 |
| 20260901130211 | 78 | 182 | 0.0 | 0.0 | 0.00 | 0.00 | 0.00 | 1 | 1016.2 |
| 20260901125703 | 78 | 265 | 0.0 | 4.0 | 0.00 | 0.00 | 0.00 | 1 | 1016.3 |
| 20260901125153 | 77 | 274 | 0.0 | 0.0 | 0.00 | 0.00 | 0.00 | 1 | 1016.4 |
| 20260901124637 | 77 | 277 | 0.0 | 6.0 | 0.00 | 0.00 | 0.00 | 1 | 1016.4 |
| 20260901124144 | 77 | 273 | 0.0 | 4.0 | 0.00 | 0.00 | 0.00 | 1 | 1016.5 |
| 20260901123652 | 77 | 291 | 0.0 | 3.0 | 0.00 | 0.00 | 0.00 | 1 | 1016.6 |
| 20260901123138 | 77 | 256 | 0.0 | 2.0 | 0.00 | 0.00 | 0.00 | 1 | 1016.6 |
| 20260901122632 | 77 | 262 | 0.0 | 1.0 | 0.00 | 0.00 | 0.00 | 1 | 1016.6 |
| 20260901122128 | 77 | 261 | 0.0 | 0.0 | 0.00 | 0.00 | 0.00 | 1 | 1016.7 |
| 20260901121631 | 77 | 313 | 0.0 | 0.0 | 0.00 | 0.00 | 0.00 | 1 | 1016.6 |
| 20260901121140 | 77 | 280 | 0.0 | 5.0 | 0.00 | 0.00 | 0.00 | 1 | 1016.6 |
| 20260901120139 | 77 | 205 | 0.0 | 1.0 | 0.00 | 0.00 | 0.00 | 1 | 1016.5 |
| 20260901115640 | 76 | 286 | 0.0 | 0.0 | 0.00 | 0.00 | 0.00 | 1 | 1016.4 |
| 20260901115126 | 76 | 248 | 0.0 | 0.0 | 0.00 | 0.00 | 0.00 | 1 | 1016.3 |
| 20260901114631 | 76 | 239 | 0.0 | 2.0 | 0.00 | 0.00 | 0.00 | 1 | 1016.2 |
| 20260901114117 | 76 | 286 | 0.0 | 1.0 | 0.00 | 0.00 | 0.00 | 1 | 1016.1 |
| 20260901113613 | 76 | 288 | 0.0 | 1.0 | 0.00 | 0.00 | 0.00 | 1 | 1016.2 |
| 20260901112549 | 76 | 192 | 0.0 | 1.0 | 0.00 | 0.00 | 0.00 | 1 | 1016.2 |
| 20260901111555 | 76 | 246 | 0.0 | 0.0 | 0.00 | 0.00 | 0.00 | 1 | 1016.1 |
| 20260901111101 | 76 | 246 | 0.0 | 0.0 | 0.00 | 0.00 | 0.00 | 1 | 1016.1 |
| 20260901110558 | 76 | 246 | 0.0 | 0.0 | 0.00 | 0.00 | 0.00 | 1 | 1016.0 |
| 20260901110038 | 76 | 246 | 0.0 | 2.0 | 0.00 | 0.00 | 0.00 | 1 | 1016.0 |
| 20260901105540 | 76 | 194 | 0.0 | 0.0 | 0.00 | 0.00 | 0.00 | 1 | 1016.1 |
| 20260901104541 | 76 | 252 | 0.0 | 0.0 | 0.00 | 0.00 | 0.00 | 1 | 1016.2 |
| 20260901104048 | 76 | 252 | 0.0 | 0.0 | 0.00 | 0.00 | 0.00 | 1 | 1016.2 |
| 20260901103537 | 76 | 252 | 0.0 | 0.0 | 0.00 | 0.00 | 0.00 | 1 | 1016.1 |
| 20260901103044 | 76 | 254 | 0.0 | 0.0 | 0.00 | 0.00 | 0.00 | 1 | 1016.0 |
| 20260901102552 | 76 | 254 | 0.0 | 0.0 | 0.00 | 0.00 | 0.00 | 1 | 1015.9 |
| 20260901102053 | 76 | 254 | 0.0 | 0.0 | 0.00 | 0.00 | 0.00 | 1 | 1015.8 |
| 20260901101535 | 76 | 254 | 0.0 | 0.0 | 0.00 | 0.00 | 0.00 | 1 | 1015.8 |
| 20260901100018 | 76 | 277 | 0.0 | 0.0 | 0.00 | 0.00 | 0.00 | 1 | 1015.9 |
| 20260901094511 | 76 | 285 | 0.0 | 0.0 | 0.00 | 0.00 | 0.00 | 1 | 1016.0 |
| 20260901093956 | 76 | 286 | 0.0 | 2.0 | 0.00 | 0.00 | 0.00 | 1 | 1016.0 |
| 20260901093440 | 76 | 263 | 0.0 | 0.0 | 0.00 | 0.00 | 0.00 | 1 | 1016.0 |
| 20260901092947 | 76 | 236 | 0.0 | 0.0 | 0.00 | 0.00 | 0.00 | 1 | 1016.0 |
| 20260901092453 | 76 | 236 | 0.0 | 2.0 | 0.00 | 0.00 | 0.00 | 1 | 1016.0 |
| 20260901091951 | 76 | 294 | 0.0 | 0.0 | 0.00 | 0.00 | 0.00 | 1 | 1016.0 |
| 20260901091444 | 76 | 286 | 0.0 | 0.0 | 0.00 | 0.00 | 0.00 | 1 | 1016.0 |
| 20260901090948 | 75 | 240 | 0.0 | 0.0 | 0.00 | 0.00 | 0.00 | 1 | 1015.9 |
| 20260901085946 | 75 | 192 | 0.0 | 0.0 | 0.00 | 0.00 | 0.00 | 1 | 1016.0 |
| 20260901084952 | 75 | 251 | 0.0 | 1.0 | 0.00 | 0.00 | 0.00 | 1 | 1016.2 |
| 20260901084449 | 75 | 238 | 0.0 | 0.0 | 0.00 | 0.00 | 0.00 | 1 | 1016.2 |
| 20260901083933 | 75 | 238 | 0.0 | 0.0 | 0.00 | 0.00 | 0.00 | 1 | 1016.2 |
| 20260901083442 | 75 | 238 | 0.0 | 0.0 | 0.00 | 0.00 | 0.00 | 1 | 1016.2 |
| 20260901082941 | 75 | 251 | 0.0 | 0.0 | 0.00 | 0.00 | 0.00 | 1 | 1016.2 |
| 20260901082430 | 75 | 157 | 0.0 | 1.0 | 0.00 | 0.00 | 0.00 | 1 | 1016.2 |
| 20260901081916 | 75 | 157 | 0.0 | 0.0 | 0.00 | 0.00 | 0.00 | 1 | 1016.2 |
| 20260901080853 | 75 | 157 | 0.0 | 0.0 | 0.00 | 0.00 | 0.00 | 1 | 1016.1 |
| 20260901075900 | 75 | 157 | 0.0 | 0.0 | 0.00 | 0.00 | 0.00 | 1 | 1016.0 |
| 20260901075410 | 75 | 157 | 0.0 | 1.0 | 0.00 | 0.00 | 0.00 | 1 | 1016.0 |
| 20260901074906 | 75 | 158 | 0.0 | 0.0 | 0.00 | 0.00 | 0.00 | 1 | 1016.0 |
| 20260901074353 | 75 | 158 | 0.0 | 0.0 | 0.00 | 0.00 | 0.00 | 1 | 1016.0 |
| 20260901073847 | 75 | 158 | 0.0 | 0.0 | 0.00 | 0.00 | 0.00 | 1 | 1016.1 |
| 20260901073332 | 75 | 158 | 0.0 | 0.0 | 0.00 | 0.00 | 0.00 | 1 | 1016.1 |
| 20260901072833 | 75 | 158 | 0.0 | 0.0 | 0.00 | 0.00 | 0.00 | 1 | 1016.1 |
| 20260901072320 | 75 | 158 | 0.0 | 0.0 | 0.00 | 0.00 | 0.00 | 1 | 1016.1 |
| 20260901071326 | 75 | 158 | 0.0 | 0.0 | 0.00 | 0.00 | 0.00 | 1 | 1016.0 |
| 20260901070828 | 75 | 158 | 0.0 | 0.0 | 0.00 | 0.00 | 0.00 | 1 | 1016.2 |
| 20260901070322 | 75 | 158 | 0.0 | 0.0 | 0.00 | 0.00 | 0.00 | 1 | 1016.3 |
| 20260901064812 | 75 | 157 | 0.0 | 0.0 | 0.00 | 0.00 | 0.00 | 1 | 1016.5 |
| 20260901064311 | 75 | 157 | 0.0 | 0.0 | 0.00 | 0.00 | 0.00 | 1 | 1016.6 |
| 20260901063802 | 75 | 164 | 0.0 | 0.0 | 0.00 | 0.00 | 0.00 | 1 | 1016.7 |
| 20260901063253 | 75 | 164 | 0.0 | 0.0 | 0.00 | 0.00 | 0.00 | 1 | 1016.8 |
| 20260901062743 | 75 | 164 | 0.0 | 0.0 | 0.00 | 0.00 | 0.00 | 1 | 1016.8 |
| 20260901062232 | 75 | 164 | 0.0 | 0.0 | 0.00 | 0.00 | 0.00 | 1 | 1016.9 |
| 20260901061735 | 75 | 164 | 0.0 | 0.0 | 0.00 | 0.00 | 0.00 | 1 | 1016.9 |
| 20260901061226 | 75 | 164 | 0.0 | 0.0 | 0.00 | 0.00 | 0.00 | 1 | 1017.0 |
| 20260901060736 | 75 | 164 | 0.0 | 0.0 | 0.00 | 0.00 | 0.00 | 1 | 1017.0 |
| 20260901060234 | 75 | 164 | 0.0 | 0.0 | 0.00 | 0.00 | 0.00 | 1 | 1017.0 |
| 20260901055743 | 75 | 164 | 0.0 | 0.0 | 0.00 | 0.00 | 0.00 | 1 | 1017.0 |
| 20260901055245 | 75 | 164 | 0.0 | 0.0 | 0.00 | 0.00 | 0.00 | 1 | 1016.9 |
| 20260901054727 | 75 | 164 | 0.0 | 0.0 | 0.00 | 0.00 | 0.00 | 1 | 1016.9 |
| 20260901054223 | 75 | 164 | 0.0 | 0.0 | 0.00 | 0.00 | 0.00 | 1 | 1016.9 |
| 20260901053713 | 75 | 164 | 0.0 | 0.0 | 0.00 | 0.00 | 0.00 | 1 | 1016.9 |
| 20260901053205 | 75 | 164 | 0.0 | 1.0 | 0.00 | 0.00 | 0.00 | 1 | 1017.0 |
| 20260901052705 | 75 | 163 | 0.0 | 0.0 | 0.00 | 0.00 | 0.00 | 1 | 1017.0 |
| 20260901052215 | 75 | 163 | 0.0 | 1.0 | 0.00 | 0.00 | 0.00 | 1 | 1017.0 |
| 20260901051710 | 75 | 167 | 0.0 | 0.0 | 0.00 | 0.00 | 0.00 | 1 | 1017.1 |
| 20260901051217 | 75 | 167 | 0.0 | 0.0 | 0.00 | 0.00 | 0.00 | 1 | 1017.2 |
| 20260901050711 | 75 | 167 | 0.0 | 0.0 | 0.00 | 0.00 | 0.00 | 1 | 1017.3 |
| 20260901050154 | 75 | 167 | 0.0 | 0.0 | 0.00 | 0.00 | 0.00 | 1 | 1017.3 |
| 20260901045147 | 75 | 167 | 0.0 | 0.0 | 0.00 | 0.00 | 0.00 | 1 | 1017.4 |
| 20260901044651 | 75 | 167 | 0.0 | 0.0 | 0.00 | 0.00 | 0.00 | 1 | 1017.4 |
| 20260901044153 | 75 | 167 | 0.0 | 0.0 | 0.00 | 0.00 | 0.00 | 1 | 1017.4 |
| 20260901042645 | 75 | 167 | 0.0 | 0.0 | 0.00 | 0.00 | 0.00 | 1 | 1017.5 |
| 20260901041632 | 75 | 167 | 0.0 | 0.0 | 0.00 | 0.00 | 0.00 | 1 | 1017.5 |
| 20260901040634 | 75 | 167 | 0.0 | 0.0 | 0.00 | 0.00 | 0.00 | 1 | 1017.5 |
| 20260901040141 | 76 | 167 | 0.0 | 0.0 | 0.00 | 0.00 | 0.00 | 1 | 1017.7 |
| 20260901035647 | 76 | 167 | 0.0 | 0.0 | 0.00 | 0.00 | 0.00 | 1 | 1017.7 |
| 20260901035144 | 76 | 167 | 0.0 | 0.0 | 0.00 | 0.00 | 0.00 | 1 | 1017.7 |
| 20260901034645 | 76 | 167 | 0.0 | 0.0 | 0.00 | 0.00 | 0.00 | 1 | 1017.6 |
| 20260901033641 | 75 | 167 | 0.0 | 0.0 | 0.00 | 0.00 | 0.00 | 1 | 1017.6 |
| 20260901033133 | 75 | 167 | 0.0 | 0.0 | 0.00 | 0.00 | 0.00 | 1 | 1017.6 |
| 20260901032626 | 75 | 167 | 0.0 | 0.0 | 0.00 | 0.00 | 0.00 | 1 | 1017.7 |
| 20260901031127 | 74 | 169 | 0.0 | 0.0 | 0.00 | 0.00 | 0.00 | 1 | 1017.8 |
| 20260901030620 | 74 | 169 | 0.0 | 0.0 | 0.00 | 0.00 | 0.00 | 1 | 1017.9 |
| 20260901030107 | 74 | 169 | 0.0 | 0.0 | 0.00 | 0.00 | 0.00 | 1 | 1017.8 |
| 20260901025553 | 74 | 169 | 0.0 | 0.0 | 0.00 | 0.00 | 0.00 | 1 | 1017.9 |
| 20260901024046 | 74 | 169 | 0.0 | 0.0 | 0.00 | 0.00 | 0.00 | 1 | 1017.9 |
| 20260901023535 | 74 | 169 | 0.0 | 0.0 | 0.00 | 0.00 | 0.00 | 1 | 1017.9 |
| 20260901022537 | 74 | 169 | 0.0 | 0.0 | 0.00 | 0.00 | 0.00 | 1 | 1017.9 |
| 20260901022032 | 74 | 169 | 0.0 | 0.0 | 0.00 | 0.00 | 0.00 | 1 | 1017.8 |
| 20260901021525 | 74 | 169 | 0.0 | 0.0 | 0.00 | 0.00 | 0.00 | 1 | 1017.8 |
| 20260901021009 | 74 | 169 | 0.0 | 0.0 | 0.00 | 0.00 | 0.00 | 1 | 1017.9 |
| 20260901015951 | 74 | 169 | 0.0 | 0.0 | 0.00 | 0.00 | 0.00 | 1 | 1017.8 |
| 20260901015459 | 74 | 169 | 0.0 | 0.0 | 0.00 | 0.00 | 0.00 | 1 | 1017.7 |
| 20260901014503 | 74 | 169 | 0.0 | 0.0 | 0.00 | 0.00 | 0.00 | 1 | 1017.6 |
| 20260901014008 | 73 | 169 | 0.0 | 0.0 | 0.00 | 0.00 | 0.00 | 1 | 1017.6 |
| 20260901013514 | 73 | 169 | 0.0 | 0.0 | 0.00 | 0.00 | 0.00 | 1 | 1017.6 |
| 20260901013006 | 73 | 169 | 0.0 | 0.0 | 0.00 | 0.00 | 0.00 | 1 | 1017.6 |
| 20260901012459 | 73 | 169 | 0.0 | 0.0 | 0.00 | 0.00 | 0.00 | 1 | 1017.6 |
| 20260901011955 | 73 | 169 | 0.0 | 0.0 | 0.00 | 0.00 | 0.00 | 1 | 1017.6 |
| 20260901010947 | 73 | 169 | 0.0 | 0.0 | 0.00 | 0.00 | 0.00 | 1 | 1017.6 |
| 20260901010445 | 73 | 169 | 0.0 | 0.0 | 0.00 | 0.00 | 0.00 | 1 | 1017.6 |
| 20260901005947 | 73 | 169 | 0.0 | 0.0 | 0.00 | 0.00 | 0.00 | 1 | 1017.6 |
| 20260901005449 | 73 | 169 | 0.0 | 0.0 | 0.00 | 0.00 | 0.00 | 1 | 1017.5 |
| 20260901004931 | 74 | 169 | 0.0 | 0.0 | 0.00 | 0.00 | 0.00 | 1 | 1017.4 |
| 20260901004432 | 74 | 169 | 0.0 | 0.0 | 0.00 | 0.00 | 0.00 | 1 | 1017.4 |
| 20260901003929 | 74 | 169 | 0.0 | 0.0 | 0.00 | 0.00 | 0.00 | 1 | 1017.5 |
| 20260901003426 | 74 | 169 | 0.0 | 0.0 | 0.00 | 0.00 | 0.00 | 1 | 1017.4 |
| 20260901002933 | 74 | 169 | 0.0 | 0.0 | 0.00 | 0.00 | 0.00 | 1 | 1017.4 |
| 20260901002417 | 74 | 169 | 0.0 | 0.0 | 0.00 | 0.00 | 0.00 | 1 | 1017.2 |
| 20260901001925 | 74 | 169 | 0.0 | 0.0 | 0.00 | 0.00 | 0.00 | 1 | 1017.2 |
| 20260901001416 | 75 | 169 | 0.0 | 0.0 | 0.00 | 0.00 | 0.00 | 1 | 1017.3 |
| 20260901000905 | 75 | 169 | 0.0 | 0.0 | 0.00 | 0.00 | 0.00 | 1 | 1017.2 |
| 20260901000351 | 75 | 169 | 0.0 | 0.0 | 0.00 | 0.00 | 0.00 | 1 | 1017.1 |
| 20260831235850 | 76 | 169 | 0.0 | 0.0 | 0.00 | 0.00 | 0.00 | 1 | 1017.0 |
| 20260831235347 | 76 | 169 | 0.0 | 0.0 | 0.00 | 0.00 | 0.00 | 1 | 1017.1 |
| 20260831234321 | 77 | 169 | 0.0 | 0.0 | 0.00 | 0.00 | 0.00 | 1 | 1017.3 |
| 20260831233831 | 77 | 169 | 0.0 | 0.0 | 0.00 | 0.00 | 0.00 | 1 | 1017.3 |
| 20260831233325 | 78 | 169 | 0.0 | 0.0 | 0.00 | 0.00 | 0.00 | 1 | 1017.3 |
| 20260831232815 | 78 | 169 | 0.0 | 0.0 | 0.00 | 0.00 | 0.00 | 1 | 1017.4 |
| 20260831232305 | 78 | 169 | 0.0 | 0.0 | 0.00 | 0.00 | 0.00 | 1 | 1017.4 |
| 20260831231809 | 78 | 169 | 0.0 | 0.0 | 0.00 | 0.00 | 0.00 | 1 | 1017.3 |
| 20260831231304 | 79 | 169 | 0.0 | 0.0 | 0.00 | 0.00 | 0.00 | 1 | 1017.4 |
| 20260831230812 | 79 | 169 | 0.0 | 0.0 | 0.00 | 0.00 | 0.00 | 1 | 1017.3 |
| 20260831230253 | 79 | 169 | 0.0 | 0.0 | 0.00 | 0.00 | 0.00 | 1 | 1017.3 |
| 20260831225747 | 79 | 227 | 0.0 | 0.0 | 0.00 | 0.00 | 0.00 | 1 | 1017.4 |
| 20260831225245 | 79 | 227 | 0.0 | 0.0 | 0.00 | 0.00 | 0.00 | 1 | 1017.4 |
| 20260831224220 | 80 | 227 | 0.0 | 0.0 | 0.00 | 0.00 | 0.00 | 1 | 1017.7 |
| 20260831223728 | 80 | 227 | 0.0 | 0.0 | 0.00 | 0.00 | 0.00 | 1 | 1017.6 |
| 20260831223214 | 80 | 227 | 0.0 | 0.0 | 0.00 | 0.00 | 0.00 | 1 | 1017.7 |
| 20260831222723 | 80 | 227 | 0.0 | 0.0 | 0.00 | 0.00 | 0.00 | 1 | 1017.8 |
| 20260831222216 | 80 | 227 | 0.0 | 0.0 | 0.00 | 0.00 | 0.00 | 1 | 1017.8 |
| 20260831221721 | 80 | 227 | 0.0 | 0.0 | 0.00 | 0.00 | 0.00 | 1 | 1017.9 |
| 20260831221210 | 80 | 227 | 0.0 | 0.0 | 0.00 | 0.00 | 0.00 | 1 | 1017.9 |
| 20260831215142 | 81 | 227 | 0.0 | 0.0 | 0.00 | 0.00 | 0.00 | 1 | 1017.9 |
| 20260831214637 | 81 | 227 | 0.0 | 0.0 | 0.00 | 0.00 | 0.00 | 1 | 1017.8 |
| 20260831214145 | 81 | 227 | 0.0 | 0.0 | 0.00 | 0.00 | 0.00 | 1 | 1017.8 |
| 20260831213629 | 81 | 227 | 0.0 | 0.0 | 0.00 | 0.00 | 0.00 | 1 | 1017.8 |
| 20260831213112 | 81 | 227 | 0.0 | 0.0 | 0.00 | 0.00 | 0.00 | 1 | 1017.8 |
| 20260831212620 | 81 | 227 | 0.0 | 0.0 | 0.00 | 0.00 | 0.00 | 1 | 1017.9 |
| 20260831212123 | 81 | 227 | 0.0 | 1.0 | 0.00 | 0.00 | 0.00 | 1 | 1017.9 |
| 20260831211619 | 82 | 227 | 0.0 | 0.0 | 0.00 | 0.00 | 0.00 | 1 | 1017.9 |
| 20260831210104 | 82 | 227 | 0.0 | 0.0 | 0.00 | 0.00 | 0.00 | 2 | 1018.0 |
| 20260831205550 | 82 | 227 | 0.0 | 0.0 | 0.00 | 0.00 | 0.00 | 5 | 1018.0 |
| 20260831205031 | 82 | 148 | 0.0 | 0.0 | 0.00 | 0.00 | 0.00 | 4 | 1018.0 |
| 20260831204525 | 82 | 148 | 0.0 | 0.0 | 0.00 | 0.00 | 0.00 | 9 | 1018.0 |